owner,sensor,date,latitude,longitude,vertical_datum,direction_of_sea_water_velocity,sea_water_speed,upward_sea_water_velocity,qcFlag 
TABS,ioos:station:wmo:42048:1,2000-09-01T00:00:00Z,27.9396,-96.8429,2.0,46.6551215,40.1521307,-99999.0,'11111222,11111222,99999999' 
TABS,ioos:station:wmo:42048:1,2000-09-01T00:30:00Z,27.9396,-96.8429,2.0,49.30712734,40.6745129,-99999.0,'11111222,11111222,99999999' 
TABS,ioos:station:wmo:42048:1,2000-09-01T01:00:00Z,27.9396,-96.8429,2.0,50.3515751,40.63777799,-99999.0,'11111222,11111222,99999999' 
TABS,ioos:station:wmo:42048:1,2000-09-01T01:30:00Z,27.9396,-96.8429,2.0,52.62646625,40.49356492,-99999.0,'11111222,11111222,99999999' 
TABS,ioos:station:wmo:42048:1,2000-09-01T02:00:00Z,27.9396,-96.8429,2.0,54.64469245,38.36540238,-99999.0,'11111222,11111222,99999999' 
TABS,ioos:station:wmo:42048:1,2000-09-01T02:30:00Z,27.9396,-96.8429,2.0,49.53722536,39.95653764,-99999.0,'11111222,11111222,99999999' 
TABS,ioos:station:wmo:42048:1,2000-09-01T03:00:00Z,27.9396,-96.8429,2.0,51.17137666,39.20290806,-99999.0,'11111222,11111222,99999999' 
TABS,ioos:station:wmo:42048:1,2000-09-01T03:30:00Z,27.9396,-96.8429,2.0,49.72639747,39.6479432,-99999.0,'11111222,11111222,99999999' 
TABS,ioos:station:wmo:42048:1,2000-09-01T04:00:00Z,27.9396,-96.8429,2.0,48.61800916,40.11633582,-99999.0,'11111222,11111222,99999999' 
TABS,ioos:station:wmo:42048:1,2000-09-01T04:30:00Z,27.9396,-96.8429,2.0,44.71024778,41.93196871,-99999.0,'11111222,11111222,99999999' 
TABS,ioos:station:wmo:42048:1,2000-09-01T05:00:00Z,27.9396,-96.8429,2.0,50.11727024,43.68238203,-99999.0,'11111222,11111222,99999999' 
TABS,ioos:station:wmo:42048:1,2000-09-01T05:30:00Z,27.9396,-96.8429,2.0,48.38680684,44.64691367,-99999.0,'11111222,11111222,99999999' 
TABS,ioos:station:wmo:42048:1,2000-09-01T06:00:00Z,27.9396,-96.8429,2.0,49.00426881,46.783247,-99999.0,'11111222,11111222,99999999' 
TABS,ioos:station:wmo:42048:1,2000-09-01T06:30:00Z,27.9396,-96.8429,2.0,52.91523732,47.44633389,-99999.0,'11111222,11111222,99999999' 
TABS,ioos:station:wmo:42048:1,2000-09-01T07:00:00Z,27.9396,-96.8429,2.0,50.29082789,45.70410922,-99999.0,'11111222,11111222,99999999' 
TABS,ioos:station:wmo:42048:1,2000-09-01T07:30:00Z,27.9396,-96.8429,2.0,52.46379851,48.66529153,-99999.0,'11111222,11111222,99999999' 
TABS,ioos:station:wmo:42048:1,2000-09-01T08:00:00Z,27.9396,-96.8429,2.0,51.70026644,51.45402317,-99999.0,'11111222,11111222,99999999' 
TABS,ioos:station:wmo:42048:1,2000-09-01T08:30:00Z,27.9396,-96.8429,2.0,52.97512631,54.68620027,-99999.0,'11111222,11111222,99999999' 
TABS,ioos:station:wmo:42048:1,2000-09-01T09:00:00Z,27.9396,-96.8429,2.0,49.92128974,55.30871993,-99999.0,'11111222,11111222,99999999' 
TABS,ioos:station:wmo:42048:1,2000-09-01T09:30:00Z,27.9396,-96.8429,2.0,51.43720356,53.54737435,-99999.0,'11111222,11111222,99999999' 
TABS,ioos:station:wmo:42048:1,2000-09-01T10:00:00Z,27.9396,-96.8429,2.0,54.4311028,55.32225953,-99999.0,'11111222,11111222,99999999' 
TABS,ioos:station:wmo:42048:1,2000-09-01T10:30:00Z,27.9396,-96.8429,2.0,53.01142431,55.96212022,-99999.0,'11111222,11111222,99999999' 
TABS,ioos:station:wmo:42048:1,2000-09-01T11:00:00Z,27.9396,-96.8429,2.0,52.97297012,53.93620306,-99999.0,'11111222,11111222,99999999' 
TABS,ioos:station:wmo:42048:1,2000-09-01T11:30:00Z,27.9396,-96.8429,2.0,57.14936474,56.04182724,-99999.0,'11111222,11111222,99999999' 
TABS,ioos:station:wmo:42048:1,2000-09-01T12:00:00Z,27.9396,-96.8429,2.0,57.41697823,53.40540797,-99999.0,'11111222,11111222,99999999' 
TABS,ioos:station:wmo:42048:1,2000-09-01T12:30:00Z,27.9396,-96.8429,2.0,60.0357844,52.79701223,-99999.0,'11111222,11111222,99999999' 
TABS,ioos:station:wmo:42048:1,2000-09-01T13:00:00Z,27.9396,-96.8429,2.0,58.77994848,51.7433561,-99999.0,'11111222,11111222,99999999' 
TABS,ioos:station:wmo:42048:1,2000-09-01T13:30:00Z,27.9396,-96.8429,2.0,59.81768627,50.68082971,-99999.0,'11111222,11111222,99999999' 
TABS,ioos:station:wmo:42048:1,2000-09-01T14:00:00Z,27.9396,-96.8429,2.0,61.23626732,48.60765578,-99999.0,'11111222,11111222,99999999' 
TABS,ioos:station:wmo:42048:1,2000-09-01T14:30:00Z,27.9396,-96.8429,2.0,60.21664763,49.78631338,-99999.0,'11111222,11111222,99999999' 
TABS,ioos:station:wmo:42048:1,2000-09-01T15:00:00Z,27.9396,-96.8429,2.0,60.11173497,50.53066891,-99999.0,'11111222,11111222,99999999' 
TABS,ioos:station:wmo:42048:1,2000-09-01T15:30:00Z,27.9396,-96.8429,2.0,60.36785653,47.30693924,-99999.0,'11111222,11111222,99999999' 
TABS,ioos:station:wmo:42048:1,2000-09-01T16:00:00Z,27.9396,-96.8429,2.0,57.34671938,45.83405939,-99999.0,'11111222,11111222,99999999' 
TABS,ioos:station:wmo:42048:1,2000-09-01T16:30:00Z,27.9396,-96.8429,2.0,66.33576202,46.04149541,-99999.0,'11111222,11111222,99999999' 
TABS,ioos:station:wmo:42048:1,2000-09-01T17:00:00Z,27.9396,-96.8429,2.0,56.77340147,45.95286716,-99999.0,'11111222,11111222,99999999' 
TABS,ioos:station:wmo:42048:1,2000-09-02T03:00:00Z,27.9396,-96.8429,2.0,45.00010523,39.39998985,-99999.0,'11111222,11111222,99999999' 
TABS,ioos:station:wmo:42048:1,2000-09-02T03:30:00Z,27.9396,-96.8429,2.0,39.83530942,42.10237285,-99999.0,'11111222,11111222,99999999' 
TABS,ioos:station:wmo:42048:1,2000-09-02T04:00:00Z,27.9396,-96.8429,2.0,42.81164481,44.07075448,-99999.0,'11111222,11111222,99999999' 
TABS,ioos:station:wmo:42048:1,2000-09-02T04:30:00Z,27.9396,-96.8429,2.0,41.68195987,47.27863894,-99999.0,'11111222,11111222,99999999' 
TABS,ioos:station:wmo:42048:1,2000-09-02T05:00:00Z,27.9396,-96.8429,2.0,44.10142371,46.88694701,-99999.0,'11111222,11111222,99999999' 
TABS,ioos:station:wmo:42048:1,2000-09-02T05:30:00Z,27.9396,-96.8429,2.0,44.12815591,48.78894649,-99999.0,'11111222,11111222,99999999' 
TABS,ioos:station:wmo:42048:1,2000-09-02T06:00:00Z,27.9396,-96.8429,2.0,42.60412818,50.40421014,-99999.0,'11111222,11111222,99999999' 
TABS,ioos:station:wmo:42048:1,2000-09-02T06:30:00Z,27.9396,-96.8429,2.0,46.4930906,52.37903875,-99999.0,'11111222,11111222,99999999' 
TABS,ioos:station:wmo:42048:1,2000-09-02T07:00:00Z,27.9396,-96.8429,2.0,44.42448181,52.78818523,-99999.0,'11111222,11111222,99999999' 
TABS,ioos:station:wmo:42048:1,2000-09-02T07:30:00Z,27.9396,-96.8429,2.0,45.46340224,52.46903849,-99999.0,'11111222,11111222,99999999' 
TABS,ioos:station:wmo:42048:1,2000-09-02T08:00:00Z,27.9396,-96.8429,2.0,46.31616502,54.80108941,-99999.0,'11111222,11111222,99999999' 
TABS,ioos:station:wmo:42048:1,2000-09-02T08:30:00Z,27.9396,-96.8429,2.0,45.53317178,57.00234469,-99999.0,'11111222,11111222,99999999' 
TABS,ioos:station:wmo:42048:1,2000-09-02T09:00:00Z,27.9396,-96.8429,2.0,45.00010523,57.53020772,-99999.0,'11111222,11111222,99999999' 
TABS,ioos:station:wmo:42048:1,2000-09-02T09:30:00Z,27.9396,-96.8429,2.0,49.51867846,60.13542384,-99999.0,'11111222,11111222,99999999' 
TABS,ioos:station:wmo:42048:1,2000-09-02T10:00:00Z,27.9396,-96.8429,2.0,48.70876672,61.87413838,-99999.0,'11111222,11111222,99999999' 
TABS,ioos:station:wmo:42048:1,2000-09-02T10:30:00Z,27.9396,-96.8429,2.0,50.14212187,65.79946048,-99999.0,'11111222,11111222,99999999' 
TABS,ioos:station:wmo:42048:1,2000-09-02T11:00:00Z,27.9396,-96.8429,2.0,50.22567221,63.58568471,-99999.0,'11111222,11111222,99999999' 
TABS,ioos:station:wmo:42048:1,2000-09-02T11:30:00Z,27.9396,-96.8429,2.0,53.75238443,60.22555106,-99999.0,'11111222,11111222,99999999' 
TABS,ioos:station:wmo:42048:1,2000-09-02T12:00:00Z,27.9396,-96.8429,2.0,51.13199709,63.15240138,-99999.0,'11111222,11111222,99999999' 
TABS,ioos:station:wmo:42048:1,2000-09-02T12:30:00Z,27.9396,-96.8429,2.0,54.06722339,60.17004653,-99999.0,'11111222,11111222,99999999' 
TABS,ioos:station:wmo:42048:1,2000-09-02T13:00:00Z,27.9396,-96.8429,2.0,53.7321764,56.91714153,-99999.0,'11111222,11111222,99999999' 
TABS,ioos:station:wmo:42048:1,2000-09-02T13:30:00Z,27.9396,-96.8429,2.0,55.32426301,59.97196678,-99999.0,'11111222,11111222,99999999' 
TABS,ioos:station:wmo:42048:1,2000-09-02T14:00:00Z,27.9396,-96.8429,2.0,55.278801,59.63993042,-99999.0,'11111222,11111222,99999999' 
TABS,ioos:station:wmo:42048:1,2000-09-02T14:30:00Z,27.9396,-96.8429,2.0,56.97541461,60.42201999,-99999.0,'11111222,11111222,99999999' 
TABS,ioos:station:wmo:42048:1,2000-09-02T15:00:00Z,27.9396,-96.8429,2.0,57.16510665,57.98372185,-99999.0,'11111222,11111222,99999999' 
TABS,ioos:station:wmo:42048:1,2000-09-02T15:30:00Z,27.9396,-96.8429,2.0,55.59801917,59.59326975,-99999.0,'11111222,11111222,99999999' 
TABS,ioos:station:wmo:42048:1,2000-09-02T16:00:00Z,27.9396,-96.8429,2.0,58.2156329,58.55047822,-99999.0,'11111222,11111222,99999999' 
TABS,ioos:station:wmo:42048:1,2000-09-02T16:30:00Z,27.9396,-96.8429,2.0,57.686547,55.18640775,-99999.0,'11111222,11111222,99999999' 
TABS,ioos:station:wmo:42048:1,2000-09-02T17:00:00Z,27.9396,-96.8429,2.0,61.61179276,54.53847541,-99999.0,'11111222,11111222,99999999' 
TABS,ioos:station:wmo:42048:1,2000-09-02T17:30:00Z,27.9396,-96.8429,2.0,58.33779797,47.97000417,-99999.0,'11111222,11111222,99999999' 
TABS,ioos:station:wmo:42048:1,2000-09-02T18:00:00Z,27.9396,-96.8429,2.0,57.04757672,51.49431231,-99999.0,'11111222,11111222,99999999' 
TABS,ioos:station:wmo:42048:1,2000-09-02T18:30:00Z,27.9396,-96.8429,2.0,55.32071836,48.191216,-99999.0,'11111222,11111222,99999999' 
TABS,ioos:station:wmo:42048:1,2000-09-02T19:00:00Z,27.9396,-96.8429,2.0,57.41489793,47.03345405,-99999.0,'11111222,11111222,99999999' 
TABS,ioos:station:wmo:42048:1,2000-09-02T19:30:00Z,27.9396,-96.8429,2.0,54.46906744,49.98764747,-99999.0,'11111222,11111222,99999999' 
TABS,ioos:station:wmo:42048:1,2000-09-02T20:00:00Z,27.9396,-96.8429,2.0,54.35683809,48.58113317,-99999.0,'11111222,11111222,99999999' 
TABS,ioos:station:wmo:42048:1,2000-09-02T20:30:00Z,27.9396,-96.8429,2.0,49.76889218,45.67457608,-99999.0,'11111222,11111222,99999999' 
TABS,ioos:station:wmo:42048:1,2000-09-02T21:00:00Z,27.9396,-96.8429,2.0,51.22624718,44.72669225,-99999.0,'11111222,11111222,99999999' 
TABS,ioos:station:wmo:42048:1,2000-09-02T21:30:00Z,27.9396,-96.8429,2.0,46.3703771,44.05828072,-99999.0,'11111222,11111222,99999999' 
TABS,ioos:station:wmo:42048:1,2000-09-02T22:00:00Z,27.9396,-96.8429,2.0,42.71239101,44.81679261,-99999.0,'11111222,11111222,99999999' 
TABS,ioos:station:wmo:42048:1,2000-09-02T22:30:00Z,27.9396,-96.8429,2.0,37.90454888,46.08151148,-99999.0,'11111222,11111222,99999999' 
TABS,ioos:station:wmo:42048:1,2000-09-02T23:00:00Z,27.9396,-96.8429,2.0,38.71684449,47.16449936,-99999.0,'11111222,11111222,99999999' 
TABS,ioos:station:wmo:42048:1,2000-09-02T23:30:00Z,27.9396,-96.8429,2.0,37.17982357,50.30473536,-99999.0,'11111222,11111222,99999999' 
TABS,ioos:station:wmo:42048:1,2000-09-03T00:00:00Z,27.9396,-96.8429,2.0,36.53401396,50.81487381,-99999.0,'11111222,11111222,99999999' 
TABS,ioos:station:wmo:42048:1,2000-09-03T00:30:00Z,27.9396,-96.8429,2.0,36.76771665,49.28407856,-99999.0,'11111222,11111222,99999999' 
TABS,ioos:station:wmo:42048:1,2000-09-03T01:00:00Z,27.9396,-96.8429,2.0,37.23216154,52.21104289,-99999.0,'11111222,11111222,99999999' 
TABS,ioos:station:wmo:42048:1,2000-09-03T01:30:00Z,27.9396,-96.8429,2.0,37.83025251,54.89770942,-99999.0,'11111222,11111222,99999999' 
TABS,ioos:station:wmo:42048:1,2000-09-03T02:00:00Z,27.9396,-96.8429,2.0,39.04584382,58.89446154,-99999.0,'11111222,11111222,99999999' 
TABS,ioos:station:wmo:42048:1,2000-09-03T02:30:00Z,27.9396,-96.8429,2.0,40.84921184,59.68788906,-99999.0,'11111222,11111222,99999999' 
TABS,ioos:station:wmo:42048:1,2000-09-03T03:00:00Z,27.9396,-96.8429,2.0,41.5595777,59.7379854,-99999.0,'11111222,11111222,99999999' 
TABS,ioos:station:wmo:42048:1,2000-09-03T03:30:00Z,27.9396,-96.8429,2.0,43.75082536,62.91917514,-99999.0,'11111222,11111222,99999999' 
TABS,ioos:station:wmo:42048:1,2000-09-03T04:00:00Z,27.9396,-96.8429,2.0,43.41851445,64.81688746,-99999.0,'11111222,11111222,99999999' 
TABS,ioos:station:wmo:42048:1,2000-09-03T04:30:00Z,27.9396,-96.8429,2.0,45.00010523,65.53465648,-99999.0,'11111222,11111222,99999999' 
TABS,ioos:station:wmo:42048:1,2000-09-03T05:00:00Z,27.9396,-96.8429,2.0,44.36432817,66.27412768,-99999.0,'11111222,11111222,99999999' 
TABS,ioos:station:wmo:42048:1,2000-09-03T05:30:00Z,27.9396,-96.8429,2.0,43.92799613,67.64660598,-99999.0,'11111222,11111222,99999999' 
TABS,ioos:station:wmo:42048:1,2000-09-03T06:00:00Z,27.9396,-96.8429,2.0,45.69136053,69.74701786,-99999.0,'11111222,11111222,99999999' 
TABS,ioos:station:wmo:42048:1,2000-09-03T06:30:00Z,27.9396,-96.8429,2.0,46.03982892,69.75342644,-99999.0,'11111222,11111222,99999999' 
TABS,ioos:station:wmo:42048:1,2000-09-03T07:00:00Z,27.9396,-96.8429,2.0,47.59501957,69.81352949,-99999.0,'11111222,11111222,99999999' 
TABS,ioos:station:wmo:42048:1,2000-09-03T07:30:00Z,27.9396,-96.8429,2.0,48.00603333,68.36522288,-99999.0,'11111222,11111222,99999999' 
TABS,ioos:station:wmo:42048:1,2000-09-03T08:00:00Z,27.9396,-96.8429,2.0,48.39684746,67.5483723,-99999.0,'11111222,11111222,99999999' 
TABS,ioos:station:wmo:42048:1,2000-09-03T08:30:00Z,27.9396,-96.8429,2.0,49.02130319,64.53387328,-99999.0,'11111222,11111222,99999999' 
TABS,ioos:station:wmo:42048:1,2000-09-03T09:00:00Z,27.9396,-96.8429,2.0,48.51270044,61.86077917,-99999.0,'11111222,11111222,99999999' 
TABS,ioos:station:wmo:42048:1,2000-09-03T09:30:00Z,27.9396,-96.8429,2.0,44.58911616,58.16102905,-99999.0,'11111222,11111222,99999999' 
TABS,ioos:station:wmo:42048:1,2000-09-03T10:00:00Z,27.9396,-96.8429,2.0,42.80102167,57.67875259,-99999.0,'11111222,11111222,99999999' 
TABS,ioos:station:wmo:42048:1,2000-09-03T10:30:00Z,27.9396,-96.8429,2.0,42.64578464,53.87751757,-99999.0,'11111222,11111222,99999999' 
TABS,ioos:station:wmo:42048:1,2000-09-03T11:00:00Z,27.9396,-96.8429,2.0,43.91918357,55.85016115,-99999.0,'11111222,11111222,99999999' 
TABS,ioos:station:wmo:42048:1,2000-09-03T11:30:00Z,27.9396,-96.8429,2.0,46.79111704,57.23997292,-99999.0,'11111222,11111222,99999999' 
TABS,ioos:station:wmo:42048:1,2000-09-03T12:00:00Z,27.9396,-96.8429,2.0,44.89348897,56.99997632,-99999.0,'11111222,11111222,99999999' 
TABS,ioos:station:wmo:42048:1,2000-09-03T12:30:00Z,27.9396,-96.8429,2.0,44.6705289,55.31787867,-99999.0,'11111222,11111222,99999999' 
TABS,ioos:station:wmo:42048:1,2000-09-03T13:00:00Z,27.9396,-96.8429,2.0,44.56964266,56.4711413,-99999.0,'11111222,11111222,99999999' 
TABS,ioos:station:wmo:42048:1,2000-09-03T13:30:00Z,27.9396,-96.8429,2.0,45.21940364,55.42343548,-99999.0,'11111222,11111222,99999999' 
TABS,ioos:station:wmo:42048:1,2000-09-03T14:00:00Z,27.9396,-96.8429,2.0,41.59339789,53.19064297,-99999.0,'11111222,11111222,99999999' 
TABS,ioos:station:wmo:42048:1,2000-09-03T14:30:00Z,27.9396,-96.8429,2.0,43.09415816,50.60027075,-99999.0,'11111222,11111222,99999999' 
TABS,ioos:station:wmo:42048:1,2000-09-03T15:00:00Z,27.9396,-96.8429,2.0,42.89073725,48.60409962,-99999.0,'11111222,11111222,99999999' 
TABS,ioos:station:wmo:42048:1,2000-09-03T15:30:00Z,27.9396,-96.8429,2.0,42.12809804,52.63950703,-99999.0,'11111222,11111222,99999999' 
TABS,ioos:station:wmo:42048:1,2000-09-03T16:00:00Z,27.9396,-96.8429,2.0,42.08468548,53.80268116,-99999.0,'11111222,11111222,99999999' 
TABS,ioos:station:wmo:42048:1,2000-09-03T16:30:00Z,27.9396,-96.8429,2.0,39.0363726,48.7288272,-99999.0,'11111222,11111222,99999999' 
TABS,ioos:station:wmo:42048:1,2000-09-03T17:00:00Z,27.9396,-96.8429,2.0,42.61564794,45.54883094,-99999.0,'11111222,11111222,99999999' 
TABS,ioos:station:wmo:42048:1,2000-09-03T17:30:00Z,27.9396,-96.8429,2.0,45.78660374,46.36228855,-99999.0,'11111222,11111222,99999999' 
TABS,ioos:station:wmo:42048:1,2000-09-03T18:00:00Z,27.9396,-96.8429,2.0,48.45671632,45.3869023,-99999.0,'11111222,11111222,99999999' 
TABS,ioos:station:wmo:42048:1,2000-09-03T18:30:00Z,27.9396,-96.8429,2.0,47.60089932,41.76231794,-99999.0,'11111222,11111222,99999999' 
TABS,ioos:station:wmo:42048:1,2000-09-03T19:00:00Z,27.9396,-96.8429,2.0,44.42040516,41.93357843,-99999.0,'11111222,11111222,99999999' 
TABS,ioos:station:wmo:42048:1,2000-09-03T19:30:00Z,27.9396,-96.8429,2.0,48.58973013,43.7071676,-99999.0,'11111222,11111222,99999999' 
TABS,ioos:station:wmo:42048:1,2000-09-03T20:00:00Z,27.9396,-96.8429,2.0,49.2473597,42.6779627,-99999.0,'11111222,11111222,99999999' 
TABS,ioos:station:wmo:42048:1,2000-09-03T20:30:00Z,27.9396,-96.8429,2.0,47.56187474,42.39806835,-99999.0,'11111222,11111222,99999999' 
TABS,ioos:station:wmo:42048:1,2000-09-03T21:00:00Z,27.9396,-96.8429,2.0,46.74644222,41.53352983,-99999.0,'11111222,11111222,99999999' 
TABS,ioos:station:wmo:42048:1,2000-09-03T21:30:00Z,27.9396,-96.8429,2.0,39.40316066,46.47341283,-99999.0,'11111222,11111222,99999999' 
TABS,ioos:station:wmo:42048:1,2000-09-03T22:00:00Z,27.9396,-96.8429,2.0,41.80977051,49.17063046,-99999.0,'11111222,11111222,99999999' 
TABS,ioos:station:wmo:42048:1,2000-09-03T22:30:00Z,27.9396,-96.8429,2.0,35.41943675,50.64222941,-99999.0,'11111222,11111222,99999999' 
TABS,ioos:station:wmo:42048:1,2000-09-03T23:00:00Z,27.9396,-96.8429,2.0,37.46294148,52.1827941,-99999.0,'11111222,11111222,99999999' 
TABS,ioos:station:wmo:42048:1,2000-09-04T05:30:00Z,27.9396,-96.8429,2.0,47.16571542,63.99644521,-99999.0,'11111222,11111222,99999999' 
TABS,ioos:station:wmo:42048:1,2000-09-04T06:00:00Z,27.9396,-96.8429,2.0,47.40943152,62.74047896,-99999.0,'11111222,11111222,99999999' 
TABS,ioos:station:wmo:42048:1,2000-09-04T06:30:00Z,27.9396,-96.8429,2.0,49.07509953,65.27541651,-99999.0,'11111222,11111222,99999999' 
TABS,ioos:station:wmo:42048:1,2000-09-04T07:00:00Z,27.9396,-96.8429,2.0,49.46820633,66.25928765,-99999.0,'11111222,11111222,99999999' 
TABS,ioos:station:wmo:42048:1,2000-09-04T07:30:00Z,27.9396,-96.8429,2.0,50.61142918,64.57839035,-99999.0,'11111222,11111222,99999999' 
TABS,ioos:station:wmo:42048:1,2000-09-04T08:00:00Z,27.9396,-96.8429,2.0,52.70691704,64.43375823,-99999.0,'11111222,11111222,99999999' 
TABS,ioos:station:wmo:42048:1,2000-09-04T08:30:00Z,27.9396,-96.8429,2.0,50.19227051,65.16565046,-99999.0,'11111222,11111222,99999999' 
TABS,ioos:station:wmo:42048:1,2000-09-04T09:00:00Z,27.9396,-96.8429,2.0,54.80003857,67.46665102,-99999.0,'11111222,11111222,99999999' 
TABS,ioos:station:wmo:42048:1,2000-09-04T09:30:00Z,27.9396,-96.8429,2.0,50.87438975,68.95143363,-99999.0,'11111222,11111222,99999999' 
TABS,ioos:station:wmo:42048:1,2000-09-04T10:00:00Z,27.9396,-96.8429,2.0,55.61347059,67.53141861,-99999.0,'11111222,11111222,99999999' 
TABS,ioos:station:wmo:42048:1,2000-09-04T10:30:00Z,27.9396,-96.8429,2.0,57.33934953,66.54147954,-99999.0,'11111222,11111222,99999999' 
TABS,ioos:station:wmo:42048:1,2000-09-04T11:00:00Z,27.9396,-96.8429,2.0,57.90586125,60.84925143,-99999.0,'11111222,11111222,99999999' 
TABS,ioos:station:wmo:42048:1,2000-09-04T11:30:00Z,27.9396,-96.8429,2.0,61.29055318,60.47432596,-99999.0,'11111222,11111222,99999999' 
TABS,ioos:station:wmo:42048:1,2000-09-04T12:00:00Z,27.9396,-96.8429,2.0,62.8255493,62.64475237,-99999.0,'11111222,11111222,99999999' 
TABS,ioos:station:wmo:42048:1,2000-09-04T12:30:00Z,27.9396,-96.8429,2.0,62.71298405,57.84719959,-99999.0,'11111222,11111222,99999999' 
TABS,ioos:station:wmo:42048:1,2000-09-04T13:00:00Z,27.9396,-96.8429,2.0,63.88306585,58.90430375,-99999.0,'11111222,11111222,99999999' 
TABS,ioos:station:wmo:42048:1,2000-09-04T13:30:00Z,27.9396,-96.8429,2.0,65.27410844,60.19912624,-99999.0,'11111222,11111222,99999999' 
TABS,ioos:station:wmo:42048:1,2000-09-04T14:00:00Z,27.9396,-96.8429,2.0,64.86972717,58.58545895,-99999.0,'11111222,11111222,99999999' 
TABS,ioos:station:wmo:42048:1,2000-09-04T14:30:00Z,27.9396,-96.8429,2.0,64.85564812,56.46018243,-99999.0,'11111222,11111222,99999999' 
TABS,ioos:station:wmo:42048:1,2000-09-04T15:00:00Z,27.9396,-96.8429,2.0,67.79775006,55.20300445,-99999.0,'11111222,11111222,99999999' 
TABS,ioos:station:wmo:42048:1,2000-09-04T15:30:00Z,27.9396,-96.8429,2.0,70.08629529,52.9351849,-99999.0,'11111222,11111222,99999999' 
TABS,ioos:station:wmo:42048:1,2000-09-04T16:00:00Z,27.9396,-96.8429,2.0,69.8026522,50.48434708,-99999.0,'11111222,11111222,99999999' 
TABS,ioos:station:wmo:42048:1,2000-09-04T16:30:00Z,27.9396,-96.8429,2.0,69.65078995,47.99537582,-99999.0,'11111222,11111222,99999999' 
TABS,ioos:station:wmo:42048:1,2000-09-04T17:00:00Z,27.9396,-96.8429,2.0,66.90903702,44.0599512,-99999.0,'11111222,11111222,99999999' 
TABS,ioos:station:wmo:42048:1,2000-09-04T17:30:00Z,27.9396,-96.8429,2.0,67.83370601,43.44059162,-99999.0,'11111222,11111222,99999999' 
TABS,ioos:station:wmo:42048:1,2000-09-04T18:00:00Z,27.9396,-96.8429,2.0,67.23790658,41.19858857,-99999.0,'11111222,11111222,99999999' 
TABS,ioos:station:wmo:42048:1,2000-09-04T18:30:00Z,27.9396,-96.8429,2.0,68.20416663,38.51321332,-99999.0,'11111222,11111222,99999999' 
TABS,ioos:station:wmo:42048:1,2000-09-04T19:00:00Z,27.9396,-96.8429,2.0,69.47742871,36.1118817,-99999.0,'11111222,11111222,99999999' 
TABS,ioos:station:wmo:42048:1,2000-09-04T19:30:00Z,27.9396,-96.8429,2.0,68.96129926,33.20341097,-99999.0,'11111222,11111222,99999999' 
TABS,ioos:station:wmo:42048:1,2000-09-04T20:00:00Z,27.9396,-96.8429,2.0,62.54361581,33.92078419,-99999.0,'11111222,11111222,99999999' 
TABS,ioos:station:wmo:42048:1,2000-09-04T20:30:00Z,27.9396,-96.8429,2.0,57.42999046,33.77105269,-99999.0,'11111222,11111222,99999999' 
TABS,ioos:station:wmo:42048:1,2000-09-04T21:00:00Z,27.9396,-96.8429,2.0,53.97515657,34.44774593,-99999.0,'11111222,11111222,99999999' 
TABS,ioos:station:wmo:42048:1,2000-09-04T21:30:00Z,27.9396,-96.8429,2.0,51.06058147,32.95149466,-99999.0,'11111222,11111222,99999999' 
TABS,ioos:station:wmo:42048:1,2000-09-04T22:00:00Z,27.9396,-96.8429,2.0,38.0742272,34.06952451,-99999.0,'11111222,11111222,99999999' 
TABS,ioos:station:wmo:42048:1,2000-09-04T22:30:00Z,27.9396,-96.8429,2.0,34.09613322,35.62374068,-99999.0,'11111222,11111222,99999999' 
TABS,ioos:station:wmo:42048:1,2000-09-04T23:00:00Z,27.9396,-96.8429,2.0,36.54727622,37.28059147,-99999.0,'11111222,11111222,99999999' 
TABS,ioos:station:wmo:42048:1,2000-09-04T23:30:00Z,27.9396,-96.8429,2.0,34.47890424,38.6856834,-99999.0,'11111222,11111222,99999999' 
TABS,ioos:station:wmo:42048:1,2000-09-05T00:00:00Z,27.9396,-96.8429,2.0,35.49567724,39.52537033,-99999.0,'11111222,11111222,99999999' 
TABS,ioos:station:wmo:42048:1,2000-09-05T00:30:00Z,27.9396,-96.8429,2.0,33.68614689,39.21453047,-99999.0,'11111222,11111222,99999999' 
TABS,ioos:station:wmo:42048:1,2000-09-05T01:00:00Z,27.9396,-96.8429,2.0,34.00688284,38.63823236,-99999.0,'11111222,11111222,99999999' 
TABS,ioos:station:wmo:42048:1,2000-09-05T01:30:00Z,27.9396,-96.8429,2.0,34.90716948,40.87398317,-99999.0,'11111222,11111222,99999999' 
TABS,ioos:station:wmo:42048:1,2000-09-05T02:00:00Z,27.9396,-96.8429,2.0,37.78462208,41.09723592,-99999.0,'11111222,11111222,99999999' 
TABS,ioos:station:wmo:42048:1,2000-09-05T02:30:00Z,27.9396,-96.8429,2.0,39.44622363,42.44890222,-99999.0,'11111222,11111222,99999999' 
TABS,ioos:station:wmo:42048:1,2000-09-05T03:00:00Z,27.9396,-96.8429,2.0,38.59257865,42.51521257,-99999.0,'11111222,11111222,99999999' 
TABS,ioos:station:wmo:42048:1,2000-09-05T03:30:00Z,27.9396,-96.8429,2.0,37.9599166,43.84593254,-99999.0,'11111222,11111222,99999999' 
TABS,ioos:station:wmo:42048:1,2000-09-05T04:00:00Z,27.9396,-96.8429,2.0,38.97401345,42.16442576,-99999.0,'11111222,11111222,99999999' 
TABS,ioos:station:wmo:42048:1,2000-09-05T04:30:00Z,27.9396,-96.8429,2.0,42.8950102,43.12018785,-99999.0,'11111222,11111222,99999999' 
TABS,ioos:station:wmo:42048:1,2000-09-05T05:00:00Z,27.9396,-96.8429,2.0,44.86847779,43.09120096,-99999.0,'11111222,11111222,99999999' 
TABS,ioos:station:wmo:42048:1,2000-09-05T05:30:00Z,27.9396,-96.8429,2.0,49.03215102,42.03547549,-99999.0,'11111222,11111222,99999999' 
TABS,ioos:station:wmo:42048:1,2000-09-05T06:00:00Z,27.9396,-96.8429,2.0,50.6199369,40.86921825,-99999.0,'11111222,11111222,99999999' 
TABS,ioos:station:wmo:42048:1,2000-09-05T06:30:00Z,27.9396,-96.8429,2.0,51.30842216,39.31987411,-99999.0,'11111222,11111222,99999999' 
TABS,ioos:station:wmo:42048:1,2000-09-05T07:00:00Z,27.9396,-96.8429,2.0,54.41785887,37.37943954,-99999.0,'11111222,11111222,99999999' 
TABS,ioos:station:wmo:42048:1,2000-09-05T07:30:00Z,27.9396,-96.8429,2.0,52.83664854,35.52446622,-99999.0,'11111222,11111222,99999999' 